Home > Weather > Río Grande > Past weeks

Flag for Argentina Weather for the Past 2 Weeks in Río Grande, Tierra del Fuego, Argentina

Now
46 °F

Sunny.


Feels Like: 38 °F
Forecast: 43 / 52 °F
Wind: 22 mph from West

Location: Rio Grande B. A.

Current Time: Feb 13, 2016 at 10:00:53 AM

Latest Report: Feb 13, 2016 at 9:00 AM


Visibility: 10 mi

Pressure: 29.12 "Hg

Humidity: 82%

Dew point: 41 °F

Location of Río GrandeLocation

Historic Weather in Río Grande — Graph

°F

Río Grande Temperature Yesterday

Maximum temperature yesterday: 64 °F (at 3:00 PM)
Minimum temperature yesterday: 43 °F (at 5:00 AM)
Average temperature yesterday: 53 °F

High & Low Weather Summary for the Past Weeks

 TemperatureHumidityPressure
High75 °F (Feb 6, 4:00 PM)100% (Feb 3, 8:00 AM)30.15 "Hg (Feb 3, 8:00 AM)
Low37 °F (Feb 13, 6:00 AM)36% (Feb 10, 9:00 PM)29.12 "Hg (Feb 13, 3:00 AM)
Average56 °F73%29.65 "Hg
* Reported Jan 29 8:00 AM — Feb 13 8:00 AM, Río Grande, Weather by CustomWeather, © 2016

Note: Actual official high and low records may vary slightly from our data, if they occured in-between our weather recording intervals... More about our weather records

Advertising

Río Grande Weather History for the Previous 24 Hours

 ConditionsComfort  
Time TempWeatherWind HumidityBarometerVisibility
8:00 AM
Sat, Feb 13
41 °FSunny.13 mph87%29.12 "Hg10 mi
7:00 AM37 °FSunny.10 mph87%29.12 "Hg10 mi
6:00 AM37 °FSunny.9 mph93%29.12 "Hg10 mi
5:00 AM39 °FClear.10 mph93%29.12 "Hg10 mi
3:00 AM41 °FPassing clouds.12 mph93%29.12 "HgN/A
1:00 AM43 °FPassing clouds.9 mph87%29.15 "HgN/A
11:00 PM
Fri, Feb 12
46 °FPassing clouds.9 mph87%29.15 "HgN/A
8:00 PM57 °FScattered clouds.13 mph67%29.15 "HgN/A
6:00 PM61 °FScattered clouds.25 mph55%29.15 "HgN/A
5:00 PM63 °FScattered clouds.25 mph52%29.18 "HgN/A
4:00 PM63 °FPartly sunny.25 mph49%29.21 "HgN/A
3:00 PM64 °FPartly sunny.23 mph46%29.21 "HgN/A
1:00 PM59 °FScattered clouds.23 mph59%29.24 "HgN/A
12:00 PM59 °FScattered clouds.24 mph55%29.27 "HgN/A
11:00 AM57 °FScattered clouds.24 mph59%29.30 "HgN/A
10:00 AM54 °FPassing clouds.23 mph67%29.33 "HgN/A
Weather by CustomWeather, © 2016

See weather overviewHow to use our weather pages